Theta_e
340 341 342 342 341 343 344 344 342 341 341 340 340 339 340 341 341 340 340 340 338 338 338 338 337 335 335 334 335 334 334 334 333 334 333 333 332 332 331 332 332 333 332 330 330 330 330 331 329 327 325 324
337 338 340 340 341 344 343 343 343 342 343 342 343 341 340 340 340 340 340 339 339 338 338 339 338 336 335 334 334 333 334 333 333 333 333 333 333 333 332 332 332 332 331 330 329 329 330 329 328 326 325 321
335 334 336 339 339 342 342 342 341 341 339 339 338 337 336 336 335 337 338 339 338 337 336 335 335 337 336 334 334 334 333 333 333 333 333 334 333 334 333 332 332 331 330 329 329 328 329 329 326 324 323 321
337 331 332 335 337 338 339 339 337 336 334 333 331 330 331 331 330 330 330 329 330 333 333 333 330 334 336 334 334 333 332 333 333 334 333 334 334 334 334 333 331 331 330 329 329 329 328 326 324 321 321 321
337 334 330 331 332 333 334 334 332 329 325 324 324 325 326 329 333 332 330 331 330 328 328 326 327 333 335 335 333 333 332 332 333 334 333 333 333 333 333 332 332 331 331 330 330 329 327 322 320 320 320 319
339 335 334 336 334 333 330 328 327 328 329 330 328 323 325 331 332 332 332 332 333 327 327 325 324 327 331 333 333 334 332 332 332 333 333 332 332 331 332 328 324 325 327 328 329 326 322 318 320 319 319 319
338 334 334 334 336 335 330 331 330 332 331 331 329 328 330 330 330 328 330 331 331 329 323 324 322 325 328 330 330 331 332 332 332 333 332 331 331 331 331 323 322 322 321 321 323 320 319 320 319 320 319 318
337 334 334 332 334 334 334 332 332 333 333 332 332 331 331 329 327 327 328 329 330 329 325 323 321 322 324 325 325 325 326 329 331 331 330 328 329 328 324 322 324 323 320 321 320 319 320 321 321 319 318 319
334 336 335 333 332 333 335 334 333 333 333 332 333 332 330 331 327 327 328 327 326 326 327 326 325 323 324 323 322 320 321 321 323 323 322 320 321 320 321 321 322 321 321 320 320 320 319 320 320 319 318 318
333 334 334 332 332 332 334 335 333 332 332 332 332 331 330 329 326 324 324 325 326 326 326 325 324 324 325 324 323 318 321 322 323 320 322 322 320 320 321 322 321 319 319 320 320 320 321 321 319 319 319 318
333 332 332 332 333 332 332 334 333 331 330 332 332 331 330 327 324 324 322 322 321 323 325 326 326 326 326 327 326 321 322 322 323 320 320 322 321 322 322 321 320 321 322 322 322 321 321 320 319 318 317 317
332 332 332 332 331 332 329 331 332 330 330 331 331 330 329 328 326 324 322 323 321 319 321 322 324 325 325 325 323 323 323 321 319 320 319 321 322 322 322 321 321 321 323 322 321 321 320 320 320 318 318 317
332 332 332 331 331 331 329 330 329 330 330 329 329 330 329 327 325 324 323 322 321 320 319 319 320 321 322 323 322 323 322 321 319 319 319 319 319 320 320 320 321 321 321 321 321 320 320 319 320 319 317 316
331 331 331 332 331 331 330 330 330 329 328 328 328 329 329 327 326 324 321 321 320 319 318 319 320 320 320 320 321 322 322 321 319 319 318 317 318 319 320 320 321 320 320 319 319 320 320 320 320 319 317 315
331 331 330 331 331 331 331 331 331 330 329 328 327 326 328 327 326 324 322 321 320 319 319 319 319 320 320 319 319 321 321 322 319 318 317 317 317 318 319 320 319 318 319 319 320 320 321 321 321 319 319 316
331 331 331 330 331 330 331 331 330 330 330 328 329 327 326 327 326 323 322 322 321 320 320 319 318 319 319 319 320 321 321 320 319 318 318 318 318 318 320 320 319 320 318 318 319 319 320 320 321 320 318 317
331 331 332 331 330 330 332 331 331 330 330 330 330 329 327 326 325 323 323 322 322 320 321 320 319 319 319 320 320 321 321 321 319 318 317 317 318 318 318 318 318 320 320 319 318 318 320 320 320 320 318 318
331 331 331 331 331 330 331 332 331 330 330 330 330 329 329 328 326 325 325 323 322 322 321 320 320 319 319 318 319 319 319 319 318 317 316 316 317 316 315 315 316 316 318 318 317 317 318 318 319 320 318 316
331 331 331 330 331 331 330 331 331 330 330 330 330 330 329 329 328 326 326 324 322 321 320 320 320 319 319 318 318 318 318 319 318 317 316 315 317 316 314 314 316 317 317 317 318 318 317 318 318 317 319 318
329 330 331 331 328 331 331 330 331 331 331 330 329 329 329 329 329 328 327 325 323 321 321 320 320 320 321 320 319 318 317 318 317 316 317 316 316 314 314 314 314 315 317 317 318 317 317 317 317 317 317 317
329 329 329 330 330 330 330 331 331 331 331 330 329 329 329 329 329 329 329 327 325 322 321 320 320 321 321 322 320 318 317 317 317 316 317 316 316 316 314 314 315 315 316 317 318 317 317 318 318 318 317 317
330 329 329 328 329 328 329 330 331 332 331 330 329 329 329 329 329 328 329 329 327 324 323 321 320 321 322 322 321 320 318 317 317 317 318 316 316 316 315 314 315 315 316 318 318 317 317 317 317 317 317 318
330 330 329 328 327 328 328 329 331 332 330 330 330 329 329 329 328 327 328 328 328 326 324 321 321 321 321 321 321 320 320 318 318 317 317 317 316 316 316 316 315 316 317 318 317 317 317 317 317 318 318 317
329 329 327 326 326 326 326 328 329 331 331 331 330 329 329 328 329 328 327 328 328 327 325 324 321 321 321 321 321 320 319 318 318 317 316 315 316 315 316 316 317 316 314 314 316 315 317 317 316 316 316 317
329 327 326 326 325 325 326 327 328 329 330 330 330 330 329 328 328 329 328 327 328 327 324 325 323 321 321 321 320 320 319 319 319 319 318 316 315 315 315 315 317 316 314 312 312 312 314 315 316 316 316 317
328 329 328 326 325 325 326 326 325 326 328 329 330 329 329 328 328 329 328 326 327 326 326 325 324 321 321 321 321 320 319 319 317 318 318 318 316 316 315 314 316 317 316 312 311 308 310 310 312 315 315 316
328 329 329 328 326 326 325 327 327 327 327 328 329 329 329 328 328 328 328 327 325 326 326 326 325 322 321 321 320 319 319 319 319 319 318 318 317 314 315 315 316 316 317 312 310 309 307 304 307 310 312 315
329 329 329 329 327 327 326 325 326 327 327 327 328 327 328 328 328 328 328 328 326 325 326 326 325 324 322 321 321 320 318 318 319 319 318 318 317 316 313 314 314 317 317 315 312 306 307 303 303 300 307 311
328 328 326 327 326 325 325 323 324 324 324 325 325 326 327 327 328 328 328 329 328 325 325 326 326 324 323 322 321 320 319 319 319 319 319 319 317 316 315 313 314 315 317 316 316 311 304 302 303 303 302 310
328 327 326 325 324 322 322 321 321 321 322 322 323 324 326 326 327 328 328 328 328 326 325 325 325 324 323 322 321 320 320 319 319 319 319 319 319 317 316 315 314 313 315 317 316 315 311 308 304 303 305 305
326 326 326 326 325 324 323 322 322 324 324 324 324 324 324 325 326 327 327 327 328 327 325 325 325 325 324 323 322 320 320 319 319 319 319 319 319 318 317 315 312 313 314 315 316 316 315 313 311 310 306 303
Wind_Speed
2 3 4 5 5 4 8 8 9 9 9 9 7 6 7 9 7 6 6 4 6 8 9 9 7 7 7 6 6 5 5 5 5 6 6 6 5 5 6 5 5 6 5 5 3 3 5 7 8 9 8 2
3 3 4 5 4 6 8 8 6 6 5 9 9 9 8 8 7 7 6 5 5 7 6 5 6 7 7 6 6 5 4 4 5 5 6 5 5 5 5 5 5 5 5 4 2 4 5 7 9 9 9 1
3 6 5 5 4 5 8 8 8 8 9 10 10 10 10 9 9 8 7 7 6 4 4 5 4 4 5 6 6 5 4 4 5 6 6 5 5 5 5 6 5 5 5 3 2 5 5 5 7 10 6 2
5 5 8 7 6 6 7 9 9 10 9 9 10 9 9 9 7 7 7 9 6 5 5 5 4 5 5 7 7 6 5 5 5 6 5 5 5 6 6 6 6 6 5 3 4 4 6 7 8 4 4 1
6 6 7 6 8 7 8 9 10 10 10 9 7 7 7 8 6 5 4 6 5 6 3 7 7 5 5 5 5 6 5 5 6 6 6 5 6 6 7 6 7 7 7 5 5 6 6 5 5 5 3 3
5 6 6 5 5 5 6 7 8 8 6 6 4 5 5 4 5 5 5 4 6 5 4 4 7 7 5 6 4 4 6 6 6 6 5 5 5 7 7 8 5 4 6 7 6 6 6 3 5 1 1 2
6 7 5 5 6 6 7 6 6 6 6 5 5 5 5 5 5 5 4 5 5 5 7 5 4 6 5 3 4 4 3 3 6 6 3 4 5 8 8 6 5 4 5 5 8 6 3 4 2 1 0 1
7 6 6 5 6 6 6 6 6 6 6 5 6 6 5 5 6 4 6 7 10 8 5 4 4 4 5 3 1 2 1 1 4 6 4 4 6 6 4 5 6 4 5 6 5 3 4 4 0 1 1 1
6 8 6 6 6 7 6 6 6 5 6 6 6 7 6 6 3 6 6 6 6 5 5 5 4 3 3 3 4 4 3 4 4 3 4 3 5 5 4 5 6 5 6 4 5 6 3 3 2 1 1 1
6 8 7 6 7 7 7 7 7 6 6 6 6 6 6 6 2 3 4 6 6 6 5 6 6 6 5 6 5 6 5 6 6 5 5 5 5 6 5 7 4 1 1 1 1 2 2 0 2 1 0 2
6 6 6 7 7 7 7 7 8 7 6 7 6 6 6 5 2 4 2 2 3 5 6 6 6 6 6 6 6 6 6 6 6 7 6 6 6 6 7 4 1 1 1 1 0 2 3 2 1 1 3 2
6 5 6 6 7 7 7 7 8 7 7 7 7 6 6 6 5 6 4 5 5 5 5 5 5 6 6 6 4 5 6 6 6 7 7 7 6 7 5 3 4 4 5 4 4 3 4 3 2 3 2 2
5 5 6 5 6 6 6 6 6 7 6 6 6 6 6 5 6 5 5 7 7 6 5 4 3 4 4 4 4 5 5 6 6 6 7 6 5 5 4 5 4 4 4 5 5 4 4 3 4 4 3 3
6 6 7 7 6 6 6 5 5 5 6 6 6 6 6 6 6 6 7 7 7 7 6 5 4 4 4 4 6 6 5 6 6 6 6 5 4 4 5 6 6 6 5 4 4 5 5 4 4 5 5 3
6 5 5 6 6 6 6 6 6 5 5 5 6 6 8 7 7 7 6 5 6 6 6 6 6 6 6 6 6 6 6 6 5 6 6 6 6 7 6 7 4 5 4 5 5 5 5 6 6 3 5 4
8 7 6 5 6 6 6 6 6 6 5 5 5 5 7 8 7 6 5 4 6 7 7 6 7 7 7 6 6 6 6 6 6 6 5 6 6 6 6 6 5 4 6 5 5 4 5 4 6 5 5 5
8 8 7 6 6 6 6 7 6 6 7 6 6 6 5 7 8 7 6 7 6 7 8 7 7 6 6 6 6 6 6 7 5 5 5 6 6 3 1 2 4 3 5 5 5 3 6 6 5 5 4 5
8 8 7 7 6 6 6 7 7 7 6 7 6 6 7 5 8 8 8 7 6 6 7 7 7 7 7 7 6 7 7 7 6 7 6 5 4 4 3 3 4 4 5 5 5 5 5 6 6 6 5 5
9 9 8 7 7 7 6 6 7 7 6 6 6 6 7 7 7 9 9 8 7 6 6 6 6 7 7 7 7 7 7 7 6 6 7 5 5 4 4 4 6 5 6 5 7 7 5 6 5 4 6 5
9 10 9 8 8 7 6 6 7 7 7 7 6 7 7 9 8 7 10 8 6 6 7 7 7 6 6 7 7 7 7 7 7 7 6 6 6 6 6 6 7 6 7 7 7 6 6 6 6 6 5 6
9 8 9 9 9 9 6 6 6 7 7 7 7 7 8 9 10 9 8 9 7 7 7 7 7 7 7 7 7 7 7 7 7 7 7 6 7 6 7 8 7 7 7 7 6 5 4 6 7 7 7 6
10 9 8 8 8 8 9 7 7 7 7 8 8 7 8 9 10 10 9 8 8 8 7 6 7 7 7 7 7 7 7 8 7 6 7 7 7 7 7 7 8 8 7 6 6 6 6 5 5 6 6 6
8 8 7 6 6 8 9 8 8 8 8 8 8 9 9 9 9 10 11 10 9 8 8 7 7 7 7 7 7 7 7 7 7 7 6 8 7 7 7 7 6 6 7 6 5 6 6 6 6 7 6 6
9 8 8 9 7 7 9 9 9 10 9 8 9 10 10 10 9 9 10 12 11 9 8 8 8 8 8 7 7 8 8 7 7 9 8 8 8 7 7 7 7 5 4 4 6 7 6 6 6 5 6 5
10 11 9 8 10 11 10 10 10 9 10 10 10 11 11 11 9 10 11 11 12 11 9 9 8 8 8 8 8 8 9 8 8 8 9 8 7 8 7 7 7 6 4 3 3 4 5 6 6 6 6 7
10 11 12 12 13 11 10 10 10 11 10 11 10 11 11 10 10 11 11 11 11 11 10 10 9 8 10 9 8 8 7 8 8 8 8 7 7 6 8 6 6 7 5 5 6 5 4 5 4 6 7 7
12 11 11 11 10 11 9 9 9 9 8 8 10 11 11 11 11 12 12 11 12 11 11 11 11 10 9 11 10 9 9 9 10 9 10 10 9 7 5 5 4 7 10 8 4 2 1 4 5 6 6 6
12 12 11 10 8 8 9 8 7 8 7 9 11 12 12 12 12 13 13 12 12 11 11 12 12 11 9 11 11 11 10 11 11 10 10 9 10 8 7 7 8 7 8 7 7 5 9 3 2 4 7 9
10 8 7 7 5 5 6 4 6 8 9 11 12 11 12 15 13 14 14 13 13 13 12 11 11 10 10 9 10 11 11 11 12 12 11 11 10 11 10 9 7 7 8 10 9 7 4 2 4 6 3 5
10 10 10 9 9 10 9 10 9 13 15 13 13 15 12 10 13 14 13 13 13 13 12 12 12 11 10 10 9 10 11 10 9 11 12 13 12 12 11 9 8 7 8 11 12 11 6 7 6 4 4 4
11 11 11 13 13 13 13 13 12 10 9 10 10 8 10 11 11 12 14 13 12 12 13 12 12 12 11 10 9 9 9 10 11 11 12 10 11 12 11 9 9 10 9 7 9 11 13 10 5 2 3 6
Wind_Direction
77 50 70 67 62 65 112 120 127 132 124 116 115 108 111 121 128 130 134 127 131 130 131 138 141 136 140 145 141 139 135 136 131 123 115 116 109 103 92 87 88 94 91 74 32 336 333 326 331 337 352 343
145 84 72 56 58 118 130 131 123 99 109 109 98 91 87 97 120 132 127 96 97 117 129 132 138 146 144 146 143 139 144 143 132 128 119 115 118 107 101 94 95 97 101 84 342 303 325 326 323 332 336 323
168 147 107 94 101 132 134 125 106 106 109 110 102 103 103 101 94 104 111 112 116 104 100 115 107 131 146 148 135 135 138 130 138 135 133 136 132 121 112 106 100 103 100 110 292 297 305 306 312 311 313 330
161 162 139 126 132 136 125 116 113 109 103 106 113 120 124 123 119 117 119 123 111 117 114 111 118 130 132 144 147 149 154 148 147 146 152 157 146 136 126 119 118 120 128 178 234 277 293 309 319 297 248 346
158 157 142 130 133 130 127 121 117 110 108 108 114 132 143 149 149 146 151 140 135 112 88 110 100 94 121 130 147 149 152 162 164 154 163 164 155 149 149 148 147 157 163 193 220 240 262 287 308 286 38 30
149 152 161 144 141 132 126 122 124 128 137 140 140 143 161 188 203 165 173 154 133 105 119 82 104 103 96 98 103 152 160 167 171 159 164 171 167 178 179 157 161 175 169 210 220 226 251 292 255 326 355 89
136 150 171 172 159 145 147 151 155 156 155 163 158 169 191 217 234 197 128 137 133 130 104 96 85 109 103 87 87 87 98 148 187 166 180 186 194 209 198 177 199 182 179 205 234 241 239 260 290 296 43 102
141 157 175 189 169 154 160 165 178 169 170 177 169 179 196 216 235 135 116 107 123 124 123 109 89 88 106 112 17 60 71 162 192 207 232 230 244 241 237 201 218 197 182 198 214 221 220 200 179 26 2 78
164 162 183 187 170 164 172 168 185 192 178 190 176 180 197 221 230 130 140 147 146 169 159 152 161 166 171 179 203 193 209 179 209 214 236 229 241 247 233 240 237 170 184 198 201 206 167 150 184 163 208 152
184 167 179 181 171 177 173 165 185 199 188 189 184 179 196 221 192 140 142 156 165 167 184 170 177 187 192 187 189 182 206 195 191 201 212 206 217 231 239 239 211 113 119 181 166 119 118 160 162 212 163 134
187 187 181 176 181 178 179 172 180 194 187 181 178 175 187 197 164 140 172 244 182 184 183 193 183 192 195 205 185 184 192 208 196 192 206 205 213 224 231 224 121 112 220 200 48 146 165 200 191 192 214 188
195 188 191 186 181 184 185 178 182 184 182 171 173 173 177 187 176 170 181 203 222 199 187 203 190 194 198 196 208 189 186 202 211 190 206 209 206 221 232 203 188 189 203 198 196 184 173 178 188 214 223 165
204 190 194 193 186 188 184 182 177 176 173 175 172 173 178 181 184 192 196 202 202 186 198 204 203 214 207 191 208 228 218 200 211 200 208 207 203 217 224 226 197 204 226 197 194 174 173 173 210 215 197 179
207 202 189 193 194 181 180 186 179 172 176 178 174 177 181 179 188 199 209 199 185 176 185 189 202 217 219 207 209 211 237 226 199 198 211 200 200 217 221 227 203 196 215 224 196 176 169 182 215 215 184 179
206 209 208 192 190 182 181 178 177 179 183 187 184 176 177 184 193 205 214 200 177 171 179 186 188 205 215 216 220 207 224 230 213 200 196 195 202 215 217 224 208 177 210 220 214 186 170 187 206 222 198 179
193 204 207 202 188 192 179 175 181 185 190 195 198 192 181 186 192 200 218 219 182 176 179 189 191 195 201 211 214 212 216 223 218 205 197 201 207 211 208 204 215 206 209 236 219 188 181 179 181 217 206 192
190 193 198 203 200 195 183 177 178 192 196 195 198 198 190 184 182 185 209 231 203 180 182 185 189 197 199 200 206 210 213 215 216 201 213 222 201 187 173 201 237 232 207 218 243 206 181 179 191 210 192 196
188 192 193 197 202 198 189 178 182 192 199 194 194 194 202 187 181 183 202 219 216 190 182 182 187 191 197 199 201 206 205 207 206 197 212 216 171 187 194 228 238 251 242 227 244 240 196 178 191 199 194 195
187 188 191 193 198 203 195 178 184 189 194 198 194 193 199 205 190 193 198 211 199 201 191 189 193 194 195 194 197 204 199 192 202 198 207 190 178 192 211 216 227 227 234 218 218 231 202 186 196 190 197 194
186 184 190 192 194 199 201 186 186 189 194 194 193 196 201 204 213 202 201 208 196 197 198 192 194 198 194 197 194 198 194 183 195 205 202 198 176 183 208 212 226 222 223 226 227 221 196 194 189 202 203 202
192 187 185 188 188 193 197 200 197 193 191 196 196 196 203 202 207 218 208 204 202 201 202 195 191 195 196 196 195 189 193 193 196 195 198 203 196 184 199 204 213 221 220 224 226 227 209 196 189 197 204 203
192 195 192 189 184 185 194 205 201 201 196 199 198 199 206 200 201 209 215 212 207 204 206 198 190 193 200 197 194 191 193 199 195 195 190 200 203 200 203 209 206 213 216 214 218 220 219 214 196 201 205 206
193 194 200 201 187 187 195 199 201 197 203 200 199 208 206 203 201 202 208 216 217 207 203 204 200 193 200 196 189 192 197 194 192 203 197 194 207 210 210 210 211 205 205 217 217 212 216 215 213 210 203 202
188 190 194 199 202 204 202 200 198 198 202 198 206 208 206 207 206 201 204 207 217 217 204 204 204 195 194 198 186 192 199 199 193 198 204 207 200 208 218 213 216 220 217 223 215 216 222 216 212 211 204 207
186 189 193 200 203 209 205 204 200 201 201 202 207 205 206 207 210 208 205 207 207 214 211 207 204 196 197 199 194 194 203 200 201 199 201 206 201 201 207 220 207 216 188 220 257 238 229 238 227 218 209 212
191 192 195 193 200 201 199 196 199 206 202 204 203 204 205 207 212 216 213 206 206 208 210 207 209 200 196 197 204 201 195 197 201 203 203 195 208 206 203 216 193 202 165 235 211 211 260 270 270 232 220 216
198 198 198 196 200 197 202 205 204 204 200 198 206 206 206 208 211 213 218 210 204 205 207 208 207 209 195 195 198 197 200 198 203 205 204 198 199 202 215 214 205 194 189 216 183 196 338 251 239 273 250 236
201 200 199 201 196 196 196 197 190 191 189 199 207 210 205 209 210 211 216 214 203 206 206 206 208 208 203 199 195 197 199 200 204 202 206 200 197 178 196 204 221 200 194 186 143 216 213 226 199 284 235 216
199 193 196 196 195 183 197 194 173 177 203 205 209 210 208 211 205 209 213 213 206 201 206 206 209 210 211 206 199 196 200 202 203 200 202 199 195 193 195 201 205 214 197 199 195 179 130 231 228 222 231 188
194 196 192 186 189 196 196 204 190 197 200 200 203 208 210 206 205 208 212 213 208 200 201 204 206 209 209 212 207 201 202 204 201 203 201 201 198 201 202 193 189 207 211 203 206 214 210 165 174 184 218 129
195 202 200 199 200 202 202 204 212 209 205 205 211 207 206 207 206 207 210 215 210 202 198 203 203 206 210 212 212 201 201 204 205 204 204 197 199 203 199 194 203 201 201 203 218 215 229 245 242 196 122 210